This is the latest recevied weather packets stored in our database for station/object XE2KK-10. If no packets are shown the sender has not sent any weather packets the latest 10 day(s).
| Time | Temp. | Humidity | Pressure | Rain* | Wind** | Luminosity | Snow |
|---|---|---|---|---|---|---|---|
| 1777581853 | 30° C | 61% | 1006.8 hPa | 0 mm | - | 567 W/m² | - |
| 1777581553 | 30° C | 61% | 1007 hPa | 0 mm | - | 642 W/m² | - |
| 1777581252 | 30° C | 61% | 1007 hPa | 0 mm | - | 726 W/m² | - |
| 1777580952 | 30° C | 62% | 1007.1 hPa | 0 mm | - | 686 W/m² | - |
| 1777580652 | 30° C | 60% | 1007.1 hPa | 0 mm | - | 769 W/m² | - |
| 1777580353 | 30° C | 61% | 1006.9 hPa | 0 mm | - | 744 W/m² | - |
| 1777580053 | 30° C | 61% | 1007 hPa | 0 mm | - | 737 W/m² | - |
| 1777579753 | 29.44° C | 62% | 1006.8 hPa | 0 mm | - | 697 W/m² | - |
| 1777579452 | 29.44° C | 62% | 1007.2 hPa | 0 mm | - | 390 W/m² | - |
| 1777579152 | 30° C | 61% | 1007.1 hPa | 0 mm | - | 356 W/m² | - |
| 1777578853 | 30° C | 62% | 1006.8 hPa | 0 mm | - | 402 W/m² | - |
| 1777578553 | 30° C | 62% | 1007 hPa | 0 mm | - | 391 W/m² | - |
| 1777578253 | 30° C | 61% | 1007.1 hPa | 0 mm | - | 376 W/m² | - |
| 1777577953 | 30° C | 61% | 1007.3 hPa | 0 mm | - | 378 W/m² | - |
| 1777577652 | 30.56° C | 59% | 1007.5 hPa | 0 mm | - | 396 W/m² | - |
| 1777577352 | 31.11° C | 60% | 1007.4 hPa | 0 mm | - | 567 W/m² | - |
| 1777577053 | 31.11° C | 57% | 1007.7 hPa | 0 mm | - | 763 W/m² | - |
| 1777576753 | 30° C | 61% | 1007.6 hPa | 0 mm | - | 726 W/m² | - |
| 1777576453 | 30.56° C | 60% | 1007.6 hPa | 0 mm | - | 823 W/m² | - |
| 1777576153 | 30.56° C | 59% | 1007.6 hPa | 0 mm | - | 852 W/m² | - |
| 1777575853 | 30.56° C | 59% | 1008 hPa | 0 mm | - | 786 W/m² | - |
| 1777575553 | 30.56° C | 59% | 1007.9 hPa | 0 mm | - | 739 W/m² | - |
| 1777575252 | 30° C | 61% | 1008.1 hPa | 0 mm | - | 785 W/m² | - |
| 1777574953 | 30° C | 59% | 1008.2 hPa | 0 mm | - | 795 W/m² | - |
| 1777574653 | 30° C | 61% | 1008.1 hPa | 0 mm | - | 742 W/m² | - |
* Rain latest hour (hover to see other rain measurements)
** Current wind speed in m/s (hover to see current wind gust speed)